This is the latest recevied weather packets stored in our database for station/object CA3EVY-3. If no packets are shown the sender has not sent any weather packets the latest 10 day(s).
| Time | Temp. | Humidity | Pressure | Rain* | Wind** | Luminosity | Snow |
|---|---|---|---|---|---|---|---|
| 1778141704 | 11.11° C | 73% | 922.7 hPa | - | - | - | - |
| 1778140804 | 11.67° C | 73% | 922.7 hPa | - | - | - | - |
| 1778139903 | 11.67° C | 73% | 922.8 hPa | - | - | - | - |
| 1778139003 | 11.67° C | 73% | 922.8 hPa | - | - | - | - |
| 1778138104 | 11.67° C | 73% | 922.6 hPa | - | - | - | - |
| 1778137203 | 11.67° C | 73% | 922.7 hPa | - | - | - | - |
| 1778136304 | 11.67° C | 73% | 922.8 hPa | - | - | - | - |
| 1778135403 | 11.67° C | 73% | 922.7 hPa | - | - | - | - |
| 1778134504 | 11.67° C | 73% | 922.6 hPa | - | - | - | - |
| 1778133604 | 12.22° C | 73% | 922.5 hPa | - | - | - | - |
| 1778132704 | 12.22° C | 73% | 922.8 hPa | - | - | - | - |
| 1778131803 | 12.22° C | 73% | 922.8 hPa | - | - | - | - |
| 1778130903 | 12.22° C | 73% | 922.5 hPa | - | - | - | - |
| 1778130004 | 12.22° C | 73% | 922.5 hPa | - | - | - | - |
| 1778129104 | 12.22° C | 73% | 922.5 hPa | - | - | - | - |
| 1778128205 | 12.22° C | 73% | 922.4 hPa | - | - | - | - |
| 1778127305 | 12.22° C | 73% | 922.6 hPa | - | - | - | - |
| 1778105704 | 13.33° C | 74% | 920.2 hPa | - | - | - | - |
| 1778088604 | 14.44° C | 66% | 919.6 hPa | - | - | - | - |
| 1778073304 | 13.33° C | 65% | 918.6 hPa | - | - | - | - |
| 1778069704 | 12.78° C | 64% | 918.7 hPa | - | - | - | - |
| 1778061604 | 12.78° C | 63% | 917.2 hPa | - | - | - | - |
| 1778058004 | 13.33° C | 62% | 916.2 hPa | - | - | - | - |
| 1778056204 | 13.33° C | 62% | 916.6 hPa | - | - | - | - |
| 1778055303 | 13.33° C | 62% | 916.6 hPa | - | - | - | - |
* Rain since midnight (hover to see other rain measurements)
** Current wind speed in m/s (hover to see current wind gust speed)